Regional Weather Roundup
Issued by NWS Little Rock, AR

Home | Current Version | Previous Version | Graphics & Text | Print | Product List | Glossary On
Versions: 1 2 3 4 5 6 7 8 9 10 11 12 13 14 15 16 17 18 19 20 21 22 23 24 25 26 27 28 29 30 31 32 33 34 35 36 37 38 39 40 41 42 43 44 45 46 47 48 49 50
000
ASUS44 KLZK 180905
RWRLZK

WEATHER ROUNDUP FOR ARKANSAS
NATIONAL WEATHER SERVICE LITTLE ROCK AR
400 AM CDT THU SEP 18 2014

NOTE: "FAIR" INDICATES FEW OR NO CLOUDS BELOW 12,000 FEET WITH NO
SIGNIFICANT WEATHER AND/OR OBSTRUCTIONS TO VISIBILITY.

ARZ001-003-010-029-181000-
NORTHWEST ARKANSAS

CITY           SKY/WX    TMP DP  RH WIND       PRES   REMARKS
FAYETTEVILLE   CLOUDY    62  62 100 CALM      29.93S FOG
FORT SMITH     CLOUDY    68  66  93 CALM      29.89F
HARRISON       FOG       62  62 100 CALM      29.96R VSB 1/2
BENTONVILLE    CLOUDY    66  63  88 N10G22    29.99R
ROGERS         CLOUDY    66  64  94 N6        29.99R
SILOAM SPGS    CLOUDY    64  59  82 NE5       29.95R
HIGHFILL       CLOUDY    66  63  90 N18       29.98R
$$

ARZ004-005-016-181000-
NORTH CENTRAL ARKANSAS

CITY           SKY/WX    TMP DP  RH WIND       PRES   REMARKS
BATESVILLE     CLOUDY    63  61  94 CALM      29.94F
FLIPPIN        CLOUDY    63  59  88 E5        29.95R
MTN HOME       FOG       63  63 100 E7        29.94F VSB 1/2
$$

ARZ040-041-181000-
WEST CENTRAL ARKANSAS

CITY           SKY/WX    TMP DP  RH WIND       PRES   REMARKS
MENA             N/A     73  70  88 CALM      29.89S
MOUNT IDA      CLOUDY    73  70  90 CALM      29.86F
$$

ARZ009-017-025-026-028-181000-
NORTHEAST ARKANSAS

CITY           SKY/WX    TMP DP  RH WIND       PRES   REMARKS
CORNING          N/A     63  63 100 NE8       29.96S FOG
JONESBORO      CLOUDY    63  62  97 NE5       29.94S
NEWPORT        CLOUDY    61  61 100 N5        29.94F FOG
WALNUT RIDGE   CLOUDY    64  61  88 CALM      29.93F
BLYTHEVILLE    CLOUDY    66  64  93 NE3       29.95R
$$

ARZ022-023-033-042-044-181000-
CENTRAL ARKANSAS

CITY           SKY/WX    TMP DP  RH WIND       PRES   REMARKS
LITTLE ROCK    CLOUDY    70  66  87 NE7       29.90F FOG
N LITTLE ROCK    N/A     67  67  98 NE8       29.90F
JACKSONVILLE   CLOUDY    66  64  94 NE8       29.90F
SEARCY         CLOUDY    64  62  93 N6        29.93F
HOT SPRINGS    CLOUDY    73  70  90 NE5       29.88S
RUSSELLVILLE   CLOUDY    71  68  90 CALM      29.89F
CLINTON        CLOUDY    66  66 100 CALM      29.93F FOG
$$

ARZ036-181000-
EAST ARKANSAS

CITY           SKY/WX    TMP DP  RH WIND       PRES   REMARKS
WEST MEMPHIS   CLOUDY    65  65 100 NE3       29.91S
$$

ARZ050-053-066-070-073-181000-
SOUTHWEST ARKANSAS

CITY           SKY/WX    TMP DP  RH WIND       PRES   REMARKS
ARKADELPHIA    FAIR      74  73  96 VRB3      29.87F
CAMDEN         CLOUDY    70  68  94 CALM      29.88S FOG
TEXARKANA      CLOUDY    76  72  87 NW5       29.88F
EL DORADO      CLOUDY    71  70  96 CALM      29.89F
DE QUEEN       CLOUDY    71  68  90 SW8       29.84F
$$

ARZ056-057-069-181000-
SOUTHEAST ARKANSAS

CITY           SKY/WX    TMP DP  RH WIND       PRES   REMARKS
PINE BLUFF     CLOUDY    71  68  90 SE5       29.88F
STUTTGART      CLOUDY    68  64  88 NE6       29.91S
MONTICELLO     PTCLDY    72  68  87 CALM      29.88F

$$




USA.gov is the U.S. government's official web portal to all federal, state and local government web resources and services.